Track GLOBALSTAR M085 now! 10-day predictions GLOBALSTAR M085 is classified as:
1 37742U 11033D 25189.20272683 -.00000111 00000-0 -41963-4 0 9998 2 37742 51.9845 160.1707 0000251 330.7903 42.1440 12.62269632646844